Simultaneous Nadir Overpasses (SNOs) Predictions

Prediction of SNOs between METOP-B and NOAA-19 Satellite Orbit:

Table of predicted SNOs for the next 14.0 days since TLE Epoch: 7/17/2021
Index Date (METOP-B) Time (METOP-B) Lat,Lon (METOP-B) SZA (METOP-B ) Date (NOAA-19) Time (NOAA-19) Lat,Lon (NOAA-19) SZA (NOAA-19 ) Distance(km) Time Diff (sec)
1 07/25/2021 18:50:30 -80.57, 106.69 117.80 07/25/2021 18:49:35 -80.58, 106.71 117.82 0.46 55
2 07/25/2021 19:41:10 80.58, -85.83 62.23 07/25/2021 19:40:30 80.57, -85.90 62.20 1.86 40
3 07/25/2021 20:31:52 -80.56, 81.22 117.81 07/25/2021 20:31:35 -80.57, 81.31 117.80 1.90 17
4 07/25/2021 21:22:32 80.57,-111.30 62.23 07/25/2021 21:22:30 80.57,-111.30 62.22 0.76 2
5 07/25/2021 22:13:13 -80.58, 56.08 117.76 07/25/2021 22:13:35 -80.57, 55.91 117.78 3.22 22
6 07/25/2021 23:03:54 80.56,-136.77 62.22 07/25/2021 23:04:30 80.56,-136.70 62.24 1.41 36
7 07/25/2021 23:54:35 -80.57, 30.61 117.76 07/25/2021 23:55:35 -80.56, 30.52 117.76 1.73 60



Historial Predications of SNOs between METOP-B and NOAA-19
